| time (UTC) | temp C | wind direction | speed KPH | gust KPH | rain 1hr cm | rain 24hr cm | rain mn cm | humidity % | barometer mb |
| 20260903175432 | 20 | 184 | 1.6 | 4.8 | 0.00 | 0.03 | 0.03 | 84 | 1019.4 |
| 20260903173424 | 20 | 167 | 3.2 | 16.1 | 0.00 | 0.03 | 0.03 | 83 | 1019.4 |
| 20260903172423 | 20 | 242 | 0.0 | 20.9 | 0.00 | 0.03 | 0.03 | 83 | 1019.5 |
| 20260903170432 | 20 | 244 | 3.2 | 11.3 | 0.00 | 0.03 | 0.03 | 84 | 1019.2 |
| 20260903165432 | 20 | 240 | 0.0 | 12.9 | 0.00 | 0.03 | 0.03 | 84 | 1019.4 |
| 20260903164422 | 20 | 223 | 1.6 | 11.3 | 0.00 | 0.03 | 0.03 | 85 | 1019.3 |
| 20260903163424 | 20 | 259 | 1.6 | 14.5 | 0.00 | 0.03 | 0.03 | 85 | 1019.4 |
| 20260903162425 | 20 | 259 | 4.8 | 17.7 | 0.00 | 0.03 | 0.03 | 85 | 1019.5 |
| 20260903155423 | 20 | 261 | 3.2 | 16.1 | 0.00 | 0.03 | 0.03 | 84 | 1019.3 |
| 20260903154423 | 20 | 236 | 4.8 | 20.9 | 0.00 | 0.03 | 0.03 | 84 | 1019.4 |
| 20260903151430 | 21 | 296 | 6.4 | 14.5 | 0.00 | 0.03 | 0.03 | 78 | 1019.3 |
| 20260903150440 | 21 | 263 | 3.2 | 12.9 | 0.00 | 0.03 | 0.03 | 75 | 1019.2 |
| 20260903145422 | 21 | 290 | 8.0 | 12.9 | 0.00 | 0.03 | 0.03 | 74 | 1019.0 |
| 20260903144420 | 22 | 212 | 1.6 | 14.5 | 0.00 | 0.03 | 0.03 | 74 | 1018.9 |
| 20260903142421 | 21 | 253 | 3.2 | 20.9 | 0.00 | 0.03 | 0.03 | 73 | 1019.1 |
| 20260903141426 | 21 | 287 | 9.7 | 17.7 | 0.00 | 0.03 | 0.03 | 72 | 1019.2 |
| 20260903140420 | 21 | 185 | 6.4 | 16.1 | 0.00 | 0.03 | 0.03 | 72 | 1019.0 |
| 20260903134417 | 21 | 246 | 0.0 | 8.0 | 0.00 | 0.03 | 0.03 | 74 | 1019.1 |
| 20260903133417 | 21 | 182 | 1.6 | 8.0 | 0.00 | 0.03 | 0.03 | 74 | 1019.2 |
| 20260903132432 | 20 | 237 | 3.2 | 12.9 | 0.00 | 0.03 | 0.03 | 74 | 1019.2 |
| 20260903131428 | 20 | 243 | 1.6 | 9.7 | 0.00 | 0.03 | 0.03 | 74 | 1019.1 |
| 20260903130419 | 20 | 223 | 4.8 | 16.1 | 0.00 | 0.03 | 0.03 | 74 | 1019.2 |
| 20260903125417 | 20 | 246 | 6.4 | 17.7 | 0.00 | 0.03 | 0.03 | 73 | 1019.2 |
| 20260903124419 | 20 | 187 | 6.4 | 14.5 | 0.00 | 0.03 | 0.03 | 73 | 1019.3 |
| 20260903123417 | 20 | 251 | 4.8 | 14.5 | 0.00 | 0.03 | 0.03 | 74 | 1019.2 |
| 20260903122428 | 20 | 243 | 4.8 | 12.9 | 0.00 | 0.03 | 0.03 | 74 | 1019.2 |
| 20260903121420 | 20 | 247 | 1.6 | 6.4 | 0.00 | 0.03 | 0.03 | 76 | 1019.0 |
| 20260903120415 | 20 | 252 | 3.2 | 14.5 | 0.00 | 0.03 | 0.03 | 74 | 1019.3 |
| 20260903115416 | 20 | 256 | 9.7 | 16.1 | 0.00 | 0.03 | 0.03 | 73 | 1019.3 |
| 20260903114433 | 20 | 176 | 1.6 | 16.1 | 0.00 | 0.03 | 0.03 | 74 | 1019.3 |
| 20260903113423 | 19 | 225 | 1.6 | 8.0 | 0.03 | 0.03 | 0.03 | 78 | 1019.4 |
| 20260903112418 | 18 | 183 | 0.0 | 0.0 | 0.03 | 0.03 | 0.03 | 87 | 1019.4 |
| 20260903111415 | 18 | 183 | 0.0 | 0.0 | 0.03 | 0.03 | 0.03 | 87 | 1019.6 |
| 20260903110416 | 18 | 183 | 0.0 | 0.0 | 0.03 | 0.03 | 0.03 | 84 | 1019.6 |
| 20260903105414 | 18 | 183 | 0.0 | 0.0 | 0.03 | 0.00 | 0.03 | 84 | 1019.7 |
| 20260903104418 | 18 | 183 | 0.0 | 0.0 | 0.03 | 0.00 | 0.03 | 80 | 1019.8 |
| 20260903103414 | 18 | 183 | 0.0 | 1.6 | 0.00 | 0.00 | 0.00 | 79 | 1019.7 |
| 20260903102414 | 18 | 183 | 0.0 | 4.8 | 0.00 | 0.00 | 0.00 | 76 | 1019.5 |
| 20260903101413 | 18 | 183 | 1.6 | 14.5 | 0.00 | 0.00 | 0.00 | 73 | 1019.9 |
| 20260903100413 | 18 | 202 | 0.0 | 4.8 | 0.00 | 0.00 | 0.00 | 74 | 1019.9 |
| 20260903095423 | 18 | 207 | 0.0 | 6.4 | 0.00 | 0.00 | 0.00 | 73 | 1019.9 |
| 20260903094412 | 18 | 201 | 0.0 | 8.0 | 0.00 | 0.00 | 0.00 | 73 | 1020.1 |
| 20260903093413 | 18 | 169 | 0.0 | 8.0 | 0.00 | 0.00 | 0.00 | 73 | 1019.8 |
| 20260903091412 | 18 | 195 | 0.0 | 4.8 | 0.00 | 0.00 | 0.00 | 73 | 1019.9 |
| 20260903090419 | 18 | 196 | 1.6 | 6.4 | 0.00 | 0.00 | 0.00 | 73 | 1019.9 |
| 20260903083412 | 18 | 188 | 1.6 | 9.7 | 0.00 | 0.00 | 0.00 | 74 | 1020.2 |
| 20260903075411 | 17 | 192 | 1.6 | 8.0 | 0.00 | 0.00 | 0.00 | 78 | 1020.3 |
| 20260903074408 | 16 | 217 | 0.0 | 8.0 | 0.00 | 0.00 | 0.00 | 80 | 1020.3 |
| 20260903073410 | 16 | 217 | 1.6 | 4.8 | 0.00 | 0.00 | 0.00 | 81 | 1019.9 |
| 20260903072411 | 16 | 236 | 0.0 | 4.8 | 0.00 | 0.00 | 0.00 | 83 | 1020.2 |
| 20260903071419 | 15 | 238 | 1.6 | 8.0 | 0.00 | 0.00 | 0.00 | 84 | 1020.3 |
| 20260903070411 | 15 | 174 | 1.6 | 9.7 | 0.00 | 0.00 | 0.00 | 91 | 1020.5 |
| 20260903065411 | 13 | 288 | 0.0 | 3.2 | 0.00 | 0.00 | 0.00 | 94 | 1020.3 |
| 20260903064412 | 13 | 288 | 0.0 | 1.6 | 0.00 | 0.00 | 0.00 | 94 | 1020.3 |
| 20260903062406 | 12 | 288 | 0.0 | 0.0 | 0.00 | 0.00 | 0.00 | 94 | 1020.1 |
| 20260903061409 | 12 | 288 | 0.0 | 0.0 | 0.00 | 0.00 | 0.00 | 94 | 1020.3 |
| 20260903060419 | 11 | 288 | 0.0 | 0.0 | 0.00 | 0.00 | 0.00 | 94 | 1020.5 |
| 20260903055416 | 11 | 288 | 0.0 | 0.0 | 0.00 | 0.00 | 0.00 | 94 | 1020.6 |
| 20260903054407 | 11 | 288 | 0.0 | 0.0 | 0.00 | 0.00 | 0.00 | 94 | 1020.9 |
| 20260903053408 | 11 | 288 | 0.0 | 0.0 | 0.00 | 0.00 | 0.00 | 94 | 1020.8 |
| 20260903052410 | 11 | 288 | 0.0 | 0.0 | 0.00 | 0.00 | 0.00 | 94 | 1020.6 |
| 20260903051414 | 10 | 288 | 0.0 | 3.2 | 0.00 | 0.00 | 0.00 | 94 | 1020.4 |
| 20260903050410 | 10 | 288 | 0.0 | 0.0 | 0.00 | 0.00 | 0.00 | 94 | 1020.3 |
| 20260903045411 | 10 | 288 | 0.0 | 0.0 | 0.00 | 0.00 | 0.00 | 94 | 1020.5 |
| 20260903044410 | 10 | 288 | 0.0 | 0.0 | 0.00 | 0.00 | 0.00 | 94 | 1020.7 |
| 20260903043419 | 10 | 288 | 0.0 | 0.0 | 0.00 | 0.00 | 0.00 | 94 | 1021.0 |
| 20260903042409 | 10 | 288 | 0.0 | 0.0 | 0.00 | 0.00 | 0.00 | 94 | 1021.2 |
| 20260903041411 | 10 | 288 | 0.0 | 0.0 | 0.00 | 0.00 | 0.00 | 94 | 1020.8 |
| 20260903040408 | 10 | 288 | 0.0 | 0.0 | 0.00 | 0.00 | 0.00 | 94 | 1020.8 |
| 20260903035411 | 10 | 288 | 0.0 | 0.0 | 0.00 | 0.00 | 0.00 | 94 | 1020.8 |
| 20260903034415 | 10 | 288 | 0.0 | 0.0 | 0.00 | 0.00 | 0.00 | 94 | 1020.9 |
| 20260903033409 | 9 | 288 | 0.0 | 0.0 | 0.00 | 0.00 | 0.00 | 94 | 1020.9 |
| 20260903032410 | 9 | 288 | 0.0 | 0.0 | 0.00 | 0.00 | 0.00 | 94 | 1020.8 |
| 20260903031411 | 9 | 288 | 0.0 | 0.0 | 0.00 | 0.00 | 0.00 | 94 | 1020.9 |
| 20260903030432 | 9 | 288 | 0.0 | 0.0 | 0.00 | 0.00 | 0.00 | 94 | 1020.9 |
| 20260903025407 | 10 | 288 | 0.0 | 0.0 | 0.00 | 0.00 | 0.00 | 94 | 1021.2 |
| 20260903024407 | 10 | 288 | 0.0 | 0.0 | 0.00 | 0.03 | 0.00 | 94 | 1021.1 |
| 20260903021412 | 10 | 288 | 0.0 | 0.0 | 0.00 | 0.03 | 0.00 | 94 | 1021.3 |
| 20260903020405 | 10 | 288 | 0.0 | 0.0 | 0.00 | 0.03 | 0.00 | 94 | 1021.3 |
| 20260903015405 | 10 | 288 | 0.0 | 0.0 | 0.00 | 0.03 | 0.00 | 94 | 1021.4 |
| 20260903014404 | 10 | 288 | 0.0 | 0.0 | 0.00 | 0.03 | 0.00 | 94 | 1021.5 |
| 20260903013406 | 10 | 288 | 0.0 | 0.0 | 0.00 | 0.03 | 0.00 | 94 | 1021.5 |
| 20260903012403 | 10 | 288 | 0.0 | 0.0 | 0.00 | 0.03 | 0.00 | 94 | 1021.6 |
| 20260903011405 | 10 | 288 | 0.0 | 0.0 | 0.00 | 0.03 | 0.00 | 94 | 1021.6 |
| 20260903005412 | 10 | 288 | 0.0 | 0.0 | 0.00 | 0.03 | 0.00 | 94 | 1021.5 |
| 20260903004404 | 10 | 288 | 0.0 | 0.0 | 0.00 | 0.03 | 0.00 | 94 | 1021.6 |
| 20260903003403 | 10 | 288 | 0.0 | 0.0 | 0.00 | 0.03 | 0.00 | 93 | 1021.6 |
| 20260903002402 | 11 | 288 | 0.0 | 0.0 | 0.00 | 0.03 | 0.00 | 93 | 1021.6 |
| 20260903001418 | 11 | 288 | 0.0 | 0.0 | 0.00 | 0.03 | 0.00 | 93 | 1021.5 |
| 20260903000407 | 11 | 288 | 0.0 | 0.0 | 0.00 | 0.03 | 0.00 | 93 | 1021.8 |
| 20260902235403 | 11 | 288 | 0.0 | 0.0 | 0.00 | 0.03 | 0.00 | 93 | 1021.7 |
| 20260902233401 | 11 | 288 | 0.0 | 0.0 | 0.00 | 0.03 | 0.00 | 93 | 1021.7 |
| 20260902231402 | 11 | 288 | 0.0 | 0.0 | 0.00 | 0.03 | 0.00 | 92 | 1022.0 |
| 20260902230402 | 12 | 288 | 0.0 | 0.0 | 0.00 | 0.03 | 0.00 | 92 | 1022.0 |
| 20260902225401 | 12 | 288 | 0.0 | 0.0 | 0.00 | 0.03 | 0.00 | 92 | 1021.9 |
| 20260902224408 | 12 | 288 | 0.0 | 0.0 | 0.00 | 0.03 | 0.00 | 92 | 1021.8 |
| 20260902222359 | 12 | 288 | 0.0 | 0.0 | 0.00 | 0.03 | 0.00 | 91 | 1022.0 |
| 20260902221402 | 12 | 288 | 0.0 | 0.0 | 0.00 | 0.03 | 0.00 | 91 | 1021.9 |
| 20260902215401 | 12 | 288 | 0.0 | 0.0 | 0.00 | 0.03 | 0.03 | 91 | 1022.0 |
| 20260902212409 | 13 | 288 | 0.0 | 0.0 | 0.00 | 0.03 | 0.03 | 90 | 1021.8 |
| 20260902211359 | 13 | 288 | 0.0 | 0.0 | 0.00 | 0.03 | 0.03 | 89 | 1021.8 |
| 20260902205358 | 13 | 288 | 0.0 | 0.0 | 0.00 | 0.03 | 0.03 | 88 | 1021.7 |
| 20260902204358 | 13 | 288 | 0.0 | 0.0 | 0.00 | 0.03 | 0.03 | 87 | 1021.8 |
| 20260902202357 | 13 | 288 | 0.0 | 0.0 | 0.00 | 0.03 | 0.03 | 87 | 1021.9 |
| 20260902195359 | 13 | 288 | 0.0 | 0.0 | 0.00 | 0.03 | 0.03 | 85 | 1021.8 |
| 20260902194355 | 13 | 288 | 0.0 | 0.0 | 0.00 | 0.03 | 0.03 | 85 | 1021.9 |
| 20260902193354 | 14 | 288 | 0.0 | 0.0 | 0.00 | 0.03 | 0.03 | 84 | 1021.9 |
| 20260902192403 | 14 | 288 | 0.0 | 0.0 | 0.00 | 0.03 | 0.03 | 83 | 1021.8 |
| 20260902191358 | 15 | 288 | 0.0 | 0.0 | 0.00 | 0.03 | 0.03 | 81 | 1021.7 |
| 20260902190358 | 15 | 288 | 0.0 | 0.0 | 0.00 | 0.03 | 0.03 | 80 | 1021.6 |
| 20260902185356 | 15 | 288 | 0.0 | 0.0 | 0.00 | 0.03 | 0.03 | 79 | 1021.6 |
| 20260902183355 | 16 | 288 | 0.0 | 1.6 | 0.00 | 0.03 | 0.03 | 77 | 1021.3 |
| 20260902182354 | 17 | 288 | 0.0 | 0.0 | 0.00 | 0.03 | 0.03 | 74 | 1021.3 |
| 20260902181411 | 17 | 288 | 0.0 | 0.0 | 0.00 | 0.03 | 0.03 | 68 | 1021.2 |